GAP2681 RPVV-RPVM

Flight info

Callsign GAP2681
Flight time 0h 55m
Altitude 23000
Route PUSIT DCT PASBU W17 IOO TR6 BCD DCT DUDAR DUDAR3P
Aircraft DH8D/M-SDE2E3FGRY/H

Departure

Time 2026-04-28 08:14
Airport Francisco B. Reyes (Busuanga) Airport (RPVV)

Arrival

Time 2026-04-28 09:09
Airport Mactan Cebu International Airport (RPVM)
Time Latitude Longitude Altitude Speed Heading
2026-04-28 08:07 12.12034 120.09902 172 ft 0 kts 174°
2026-04-28 08:11 12.12031 120.09901 172 ft 1 kts 201°
2026-04-28 08:11 12.12034 120.09886 172 ft 4 kts 307°
2026-04-28 08:12 12.12056 120.09858 172 ft 6 kts 309°
2026-04-28 08:12 12.12092 120.09815 172 ft 9 kts 313°
2026-04-28 08:12 12.12139 120.09761 172 ft 10 kts 309°
2026-04-28 08:12 12.12154 120.09687 172 ft 11 kts 265°
2026-04-28 08:13 12.12146 120.09596 172 ft 13 kts 265°
2026-04-28 08:13 12.12149 120.09536 172 ft 6 kts 276°
2026-04-28 08:13 12.12144 120.09521 172 ft 1 kts 192°
2026-04-28 08:13 12.12139 120.09530 173 ft 1 kts 85°
2026-04-28 08:14 12.12139 120.09531 173 ft 0 kts 83°
2026-04-28 08:14 12.12152 120.09662 173 ft 59 kts 84°
2026-04-28 08:14 12.12220 120.10381 210 ft 130 kts 84°
2026-04-28 08:14 12.12314 120.11334 778 ft 144 kts 85°
2026-04-28 08:15 12.12448 120.12360 1520 ft 153 kts 83°
2026-04-28 08:15 12.12603 120.13428 2318 ft 158 kts 83°
2026-04-28 08:15 12.12735 120.14580 2827 ft 170 kts 93°
2026-04-28 08:15 12.12279 120.15698 3240 ft 181 kts 129°
2026-04-28 08:16 12.11384 120.16668 3739 ft 189 kts 131°
2026-04-28 08:16 12.10471 120.17648 4274 ft 193 kts 132°
2026-04-28 08:16 12.09540 120.18631 4841 ft 195 kts 132°
2026-04-28 08:16 12.08587 120.19628 5353 ft 198 kts 132°
2026-04-28 08:17 12.07622 120.20631 5882 ft 201 kts 132°
2026-04-28 08:17 12.06639 120.21648 6391 ft 204 kts 133°
2026-04-28 08:17 12.05642 120.22675 6928 ft 205 kts 133°
2026-04-28 08:17 12.04625 120.23719 7490 ft 205 kts 132°
2026-04-28 08:18 12.03613 120.24757 8022 ft 208 kts 133°
2026-04-28 08:18 12.02599 120.25794 8586 ft 209 kts 132°
2026-04-28 08:18 12.01562 120.26856 9140 ft 210 kts 132°
2026-04-28 08:18 12.00544 120.27895 9680 ft 210 kts 132°
2026-04-28 08:19 11.99491 120.28972 10175 ft 213 kts 132°
2026-04-28 08:19 11.98438 120.30048 10611 ft 220 kts 132°
2026-04-28 08:19 11.97324 120.31190 10926 ft 234 kts 132°
2026-04-28 08:19 11.96142 120.32401 11235 ft 247 kts 133°
2026-04-28 08:20 11.94912 120.33659 11790 ft 252 kts 133°
2026-04-28 08:20 11.93663 120.34933 12410 ft 255 kts 133°
2026-04-28 08:20 11.92410 120.36211 13050 ft 258 kts 133°
2026-04-28 08:20 11.91137 120.37508 13700 ft 262 kts 133°
2026-04-28 08:21 11.89841 120.38827 14397 ft 266 kts 133°
2026-04-28 08:21 11.88530 120.40163 15107 ft 269 kts 133°
2026-04-28 08:21 11.87213 120.41503 15822 ft 272 kts 133°
2026-04-28 08:21 11.85858 120.42883 16538 ft 275 kts 133°
2026-04-28 08:22 11.84503 120.44262 17245 ft 279 kts 133°
2026-04-28 08:22 11.83114 120.45675 17977 ft 282 kts 133°
2026-04-28 08:22 11.81720 120.47093 18692 ft 286 kts 133°
2026-04-28 08:22 11.80311 120.48527 19422 ft 290 kts 133°
2026-04-28 08:23 11.78883 120.49979 20184 ft 293 kts 133°
2026-04-28 08:23 11.77461 120.51424 20944 ft 295 kts 133°
2026-04-28 08:23 11.75997 120.52913 21696 ft 298 kts 133°
2026-04-28 08:23 11.74521 120.54413 22454 ft 300 kts 133°
2026-04-28 08:24 11.73012 120.55949 22835 ft 319 kts 133°
2026-04-28 08:24 11.71387 120.57606 22947 ft 343 kts 133°
2026-04-28 08:24 11.69637 120.59392 22982 ft 364 kts 133°
2026-04-28 08:24 11.67804 120.61259 22995 ft 380 kts 133°
2026-04-28 08:25 11.65909 120.63189 22978 ft 380 kts 134°
2026-04-28 08:25 11.64072 120.65059 22975 ft 368 kts 134°
2026-04-28 08:25 11.62270 120.66891 22975 ft 361 kts 133°
2026-04-28 08:26 11.58703 120.70517 22979 ft 362 kts 133°
2026-04-28 08:26 11.56917 120.72330 22978 ft 362 kts 134°
2026-04-28 08:26 11.55122 120.74152 22980 ft 363 kts 133°
2026-04-28 08:26 11.53330 120.75970 22982 ft 363 kts 134°
2026-04-28 08:27 11.51556 120.77770 22981 ft 363 kts 134°
2026-04-28 08:27 11.49760 120.79592 22980 ft 363 kts 133°
2026-04-28 08:27 11.47961 120.81416 22980 ft 363 kts 133°
2026-04-28 08:27 11.46161 120.83241 22980 ft 363 kts 133°
2026-04-28 08:28 11.44365 120.85062 22980 ft 363 kts 134°
2026-04-28 08:28 11.42574 120.86876 22980 ft 363 kts 133°
2026-04-28 08:28 11.40787 120.88686 22979 ft 363 kts 134°
2026-04-28 08:28 11.38998 120.90499 22979 ft 363 kts 134°
2026-04-28 08:29 11.37204 120.92316 22981 ft 363 kts 134°
2026-04-28 08:29 11.35413 120.94129 22981 ft 363 kts 134°
2026-04-28 08:29 11.33617 120.95948 22980 ft 363 kts 133°
2026-04-28 08:29 11.31820 120.97766 22979 ft 363 kts 134°
2026-04-28 08:30 11.30044 120.99565 22980 ft 363 kts 134°
2026-04-28 08:30 11.28247 121.01383 22981 ft 363 kts 133°
2026-04-28 08:30 11.26452 121.03198 22979 ft 363 kts 133°
2026-04-28 08:30 11.24650 121.05021 22977 ft 363 kts 133°
2026-04-28 08:31 11.22853 121.06838 22978 ft 363 kts 133°
2026-04-28 08:31 11.21058 121.08653 22978 ft 363 kts 133°
2026-04-28 08:31 11.19263 121.10468 22976 ft 363 kts 134°
2026-04-28 08:31 11.17469 121.12281 22974 ft 363 kts 134°
2026-04-28 08:32 11.15680 121.14088 22970 ft 362 kts 133°
2026-04-28 08:32 11.13896 121.15891 22967 ft 362 kts 133°
2026-04-28 08:32 11.12113 121.17692 22963 ft 363 kts 133°
2026-04-28 08:32 11.10304 121.19518 22959 ft 363 kts 133°
2026-04-28 08:33 11.08519 121.21321 22962 ft 363 kts 133°
2026-04-28 08:33 11.06733 121.23124 22961 ft 363 kts 133°
2026-04-28 08:33 11.04927 121.24947 22961 ft 363 kts 133°
2026-04-28 08:33 11.03144 121.26746 22956 ft 363 kts 133°
2026-04-28 08:34 11.01354 121.28553 22957 ft 363 kts 133°
2026-04-28 08:34 10.99670 121.30489 22941 ft 361 kts 123°
2026-04-28 08:34 10.98433 121.32694 22961 ft 359 kts 116°
2026-04-28 08:34 10.97267 121.34933 22965 ft 359 kts 116°
2026-04-28 08:35 10.96102 121.37175 22965 ft 359 kts 116°
2026-04-28 08:35 10.94937 121.39411 22959 ft 359 kts 116°
2026-04-28 08:35 10.93768 121.41647 22959 ft 359 kts 116°
2026-04-28 08:35 10.92596 121.43887 22956 ft 359 kts 116°
2026-04-28 08:36 10.91425 121.46120 22956 ft 359 kts 116°
2026-04-28 08:36 10.90237 121.48383 22960 ft 359 kts 116°
2026-04-28 08:36 10.89064 121.50613 22959 ft 359 kts 116°
2026-04-28 08:36 10.87890 121.52847 22961 ft 359 kts 116°
2026-04-28 08:37 10.86715 121.55082 22961 ft 359 kts 116°
2026-04-28 08:37 10.85543 121.57307 22960 ft 359 kts 116°
2026-04-28 08:37 10.84354 121.59564 22956 ft 359 kts 116°
2026-04-28 08:37 10.83182 121.61789 22957 ft 358 kts 116°
2026-04-28 08:38 10.82011 121.64011 22957 ft 358 kts 116°
2026-04-28 08:38 10.80818 121.66272 22958 ft 358 kts 116°
2026-04-28 08:38 10.79643 121.68501 22954 ft 358 kts 116°
2026-04-28 08:38 10.78472 121.70721 22953 ft 358 kts 116°
2026-04-28 08:39 10.77301 121.72941 22954 ft 358 kts 116°
2026-04-28 08:39 10.76119 121.75180 22959 ft 358 kts 116°
2026-04-28 08:39 10.74942 121.77408 22967 ft 358 kts 116°
2026-04-28 08:39 10.73758 121.79651 22972 ft 358 kts 116°
2026-04-28 08:40 10.72577 121.81885 22975 ft 358 kts 116°
2026-04-28 08:40 10.71412 121.84091 22971 ft 358 kts 116°
2026-04-28 08:40 10.70225 121.86337 22973 ft 358 kts 116°
2026-04-28 08:40 10.69052 121.88558 22974 ft 358 kts 116°
2026-04-28 08:41 10.67958 121.90847 22960 ft 357 kts 108°
2026-04-28 08:41 10.67725 121.93298 22984 ft 352 kts 82°
2026-04-28 08:41 10.68276 121.95709 22987 ft 352 kts 74°
2026-04-28 08:41 10.68953 121.98128 22982 ft 353 kts 74°
2026-04-28 08:42 10.69631 122.00510 22981 ft 353 kts 73°
2026-04-28 08:42 10.70312 122.02888 22982 ft 353 kts 73°
2026-04-28 08:42 10.71006 122.05307 22983 ft 353 kts 73°
2026-04-28 08:42 10.71690 122.07690 22985 ft 354 kts 73°
2026-04-28 08:43 10.72383 122.10104 22982 ft 354 kts 73°
2026-04-28 08:43 10.73072 122.12505 22985 ft 354 kts 73°
2026-04-28 08:43 10.73762 122.14912 22987 ft 354 kts 73°
2026-04-28 08:43 10.74447 122.17297 22995 ft 356 kts 73°
2026-04-28 08:44 10.75147 122.19738 22996 ft 359 kts 73°
2026-04-28 08:44 10.75845 122.22173 22994 ft 360 kts 73°
2026-04-28 08:44 10.76544 122.24609 22994 ft 359 kts 73°
2026-04-28 08:44 10.77242 122.27043 22994 ft 358 kts 73°
2026-04-28 08:45 10.77938 122.29470 22994 ft 358 kts 73°
2026-04-28 08:45 10.78634 122.31897 22997 ft 357 kts 73°
2026-04-28 08:45 10.79328 122.34319 22996 ft 357 kts 73°
2026-04-28 08:45 10.80022 122.36740 22990 ft 357 kts 73°
2026-04-28 08:46 10.80716 122.39162 22984 ft 357 kts 73°
2026-04-28 08:46 10.81409 122.41585 22985 ft 357 kts 73°
2026-04-28 08:46 10.82102 122.44006 22983 ft 357 kts 73°
2026-04-28 08:46 10.82797 122.46433 22979 ft 357 kts 73°
2026-04-28 08:47 10.83417 122.48874 22954 ft 358 kts 80°
2026-04-28 08:47 10.83381 122.51380 23004 ft 356 kts 95°
2026-04-28 08:47 10.83098 122.53899 22983 ft 356 kts 95°
2026-04-28 08:47 10.82808 122.56396 22970 ft 357 kts 95°
2026-04-28 08:48 10.82517 122.58895 22961 ft 357 kts 95°
2026-04-28 08:48 10.82226 122.61410 22961 ft 357 kts 95°
2026-04-28 08:48 10.81940 122.63895 22963 ft 357 kts 95°
2026-04-28 08:48 10.81654 122.66390 22966 ft 357 kts 96°
2026-04-28 08:49 10.81366 122.68906 22966 ft 357 kts 95°
2026-04-28 08:49 10.81081 122.71406 22965 ft 357 kts 96°
2026-04-28 08:49 10.80796 122.73905 22965 ft 357 kts 95°
2026-04-28 08:49 10.80511 122.76400 22963 ft 357 kts 96°
2026-04-28 08:50 10.80225 122.78910 22960 ft 357 kts 95°
2026-04-28 08:50 10.79938 122.81419 22962 ft 357 kts 95°
2026-04-28 08:50 10.79652 122.83927 22962 ft 357 kts 95°
2026-04-28 08:50 10.79365 122.86438 22970 ft 357 kts 95°
2026-04-28 08:51 10.79080 122.88937 22966 ft 357 kts 95°
2026-04-28 08:51 10.78794 122.91435 22965 ft 357 kts 95°
2026-04-28 08:51 10.78506 122.93955 22966 ft 357 kts 96°
2026-04-28 08:51 10.78218 122.96471 22966 ft 357 kts 95°
2026-04-28 08:52 10.77937 122.98930 22962 ft 354 kts 95°
2026-04-28 08:52 10.77652 123.01410 22963 ft 354 kts 95°
2026-04-28 08:52 10.77342 123.03899 22932 ft 351 kts 97°
2026-04-28 08:52 10.76971 123.06353 22604 ft 357 kts 98°
2026-04-28 08:53 10.76583 123.08853 22189 ft 361 kts 97°
2026-04-28 08:53 10.76191 123.11405 21742 ft 365 kts 97°
2026-04-28 08:53 10.75807 123.13908 21281 ft 358 kts 97°
2026-04-28 08:53 10.75429 123.16385 20834 ft 353 kts 97°
2026-04-28 08:54 10.75057 123.18815 20402 ft 348 kts 97°
2026-04-28 08:54 10.74685 123.21254 19965 ft 346 kts 97°
2026-04-28 08:54 10.74316 123.23650 19519 ft 347 kts 97°
2026-04-28 08:54 10.73555 123.25980 19029 ft 352 kts 117°
2026-04-28 08:55 10.71948 123.27885 18615 ft 357 kts 133°
2026-04-28 08:55 10.70120 123.29600 18135 ft 362 kts 134°
2026-04-28 08:55 10.68251 123.31325 17657 ft 365 kts 135°
2026-04-28 08:55 10.66346 123.33081 17171 ft 367 kts 135°
2026-04-28 08:56 10.64461 123.34821 16693 ft 369 kts 135°
2026-04-28 08:56 10.62567 123.36571 16217 ft 370 kts 135°
2026-04-28 08:56 10.60650 123.38344 15715 ft 364 kts 135°
2026-04-28 08:56 10.58810 123.40046 15242 ft 356 kts 135°
2026-04-28 08:57 10.56988 123.41731 14777 ft 350 kts 135°
2026-04-28 08:57 10.55207 123.43381 14318 ft 345 kts 135°
2026-04-28 08:57 10.53453 123.45003 13873 ft 340 kts 135°
2026-04-28 08:57 10.51702 123.46625 13428 ft 336 kts 135°
2026-04-28 08:58 10.49986 123.48213 12994 ft 335 kts 135°
2026-04-28 08:58 10.48270 123.49802 12539 ft 334 kts 135°
2026-04-28 08:58 10.46556 123.51389 12113 ft 334 kts 135°
2026-04-28 08:58 10.44824 123.52993 11668 ft 333 kts 136°
2026-04-28 08:59 10.43157 123.54538 11235 ft 320 kts 135°
2026-04-28 08:59 10.41550 123.56027 10827 ft 305 kts 135°
2026-04-28 08:59 10.40004 123.57456 10443 ft 291 kts 135°
2026-04-28 08:59 10.38534 123.58814 10080 ft 279 kts 135°
2026-04-28 09:00 10.37114 123.60125 9724 ft 272 kts 135°
2026-04-28 09:00 10.35729 123.61402 9381 ft 269 kts 135°
2026-04-28 09:00 10.34355 123.62672 9040 ft 267 kts 135°
2026-04-28 09:00 10.33011 123.63996 8690 ft 265 kts 132°
2026-04-28 09:01 10.31733 123.65308 8348 ft 263 kts 132°
2026-04-28 09:01 10.30431 123.66644 8001 ft 261 kts 132°
2026-04-28 09:01 10.29166 123.67940 7661 ft 260 kts 132°
2026-04-28 09:01 10.28315 123.68811 7434 ft 258 kts 132°
2026-04-28 09:02 10.26628 123.70532 7000 ft 256 kts 132°
2026-04-28 09:02 10.25376 123.71810 6670 ft 254 kts 132°
2026-04-28 09:02 10.24127 123.73083 6344 ft 253 kts 132°
2026-04-28 09:02 10.22892 123.74339 6017 ft 252 kts 132°
2026-04-28 09:03 10.21657 123.75596 5689 ft 248 kts 132°
2026-04-28 09:03 10.20469 123.76806 5368 ft 238 kts 132°
2026-04-28 09:03 10.19324 123.77969 5064 ft 227 kts 131°
2026-04-28 09:03 10.18232 123.79076 4776 ft 218 kts 131°
2026-04-28 09:04 10.17179 123.80144 4499 ft 207 kts 131°
2026-04-28 09:04 10.16243 123.81201 4106 ft 201 kts 117°
2026-04-28 09:04 10.16099 123.82523 3789 ft 193 kts 70°
2026-04-28 09:04 10.16861 123.83670 3543 ft 200 kts 50°
2026-04-28 09:05 10.17818 123.84716 3269 ft 202 kts 48°
2026-04-28 09:05 10.18785 123.85731 2999 ft 199 kts 48°
2026-04-28 09:05 10.19757 123.86736 2734 ft 197 kts 48°
2026-04-28 09:05 10.20709 123.87714 2472 ft 194 kts 47°
2026-04-28 09:06 10.21643 123.88666 2211 ft 184 kts 47°
2026-04-28 09:06 10.22509 123.89545 1990 ft 169 kts 48°
2026-04-28 09:06 10.23304 123.90349 1771 ft 149 kts 48°
2026-04-28 09:06 10.23979 123.91032 1615 ft 129 kts 49°
2026-04-28 09:07 10.24601 123.91676 1435 ft 126 kts 49°
2026-04-28 09:07 10.25216 123.92314 1268 ft 126 kts 48°
2026-04-28 09:07 10.25825 123.92941 1097 ft 123 kts 49°
2026-04-28 09:07 10.26434 123.93570 931 ft 124 kts 46°
2026-04-28 09:08 10.27031 123.94197 768 ft 126 kts 47°
2026-04-28 09:08 10.27660 123.94825 599 ft 126 kts 47°
2026-04-28 09:08 10.28269 123.95451 443 ft 124 kts 46°
2026-04-28 09:08 10.28892 123.96075 293 ft 125 kts 43°
2026-04-28 09:09 10.29516 123.96693 137 ft 126 kts 45°
2026-04-28 09:09 10.30142 123.97323 41 ft 122 kts 43°
2026-04-28 09:09 10.30668 123.97855 38 ft 81 kts 45°
2026-04-28 09:09 10.30984 123.98174 38 ft 49 kts 45°
2026-04-28 09:10 10.31180 123.98312 37 ft 27 kts 18°
2026-04-28 09:10 10.31331 123.98350 38 ft 18 kts 356°
2026-04-28 09:10 10.31423 123.98292 38 ft 14 kts 317°
2026-04-28 09:10 10.31490 123.98225 38 ft 11 kts 314°
2026-04-28 09:11 10.31546 123.98167 38 ft 10 kts 314°
2026-04-28 09:11 10.31595 123.98122 38 ft 8 kts 333°
2026-04-28 09:11 10.31644 123.98128 38 ft 4 kts 40°
2026-04-28 09:11 10.31664 123.98132 38 ft 2 kts 324°
2026-04-28 09:12 10.31679 123.98116 38 ft 3 kts 314°
2026-04-28 09:12 10.31694 123.98101 38 ft 1 kts 314°
2026-04-28 09:12 10.31694 123.98100 38 ft 0 kts 314°